Regional Weather Roundup
Issued by NWS

Home | Current Version | Previous Version | Graphics & Text | Print | Product List | Glossary Off
Versions: 1 2 3 4 5 6 7 8 9 10 11 12 13 14 15 16 17 18 19 20 21 22 23 24 25 26 27

000
ASUS45 KBOU 311007
RWRCO

WEATHER ROUNDUP FOR COLORADO
NATIONAL WEATHER SERVICE DENVER/BOULDER CO
400 AM MDT WED AUG 31 2016

NOTE: "FAIR" INDICATES FEW OR NO CLOUDS BELOW 12000 FEET WITH NO
SIGNIFICANT WEATHER AND/OR OBSTRUCTIONS TO VISIBILITY.

COZ001>005-013-030-031-311100-
...NORTHWEST COLORADO...

CITY           SKY/WX    TMP DP  RH WIND       PRES   REMARKS
CRAIG          FAIR      57  40  52 CALM      30.28S
HAYDEN         FAIR      54  37  54 E13       30.31S
MEEKER         FAIR      51  41  68 NE6       30.29S
MOUNT WERNER   NOT AVBL
STEAMBOAT SPGS FAIR      48  39  71 CALM      30.34S
WALDEN         FAIR      36  32  87 SE3       30.45S
$$

COZ006>008-011-311100-
...WEST CENTRAL VALLEYS...

CITY           SKY/WX    TMP DP  RH WIND       PRES   REMARKS
GRAND JUNCTION FAIR      65  43  44 E10       30.17F
MONTROSE       FAIR      57  47  69 SE3       30.28S
EAGLE          FAIR      48  43  81 E3        30.38S
RIFLE          FAIR      61  47  59 SE5       30.25S
DELTA          NOT AVBL
NUCLA          NOT AVBL
$$

COZ017>023-064>068-311100-
...SOUTHWEST COLORADO...

CITY           SKY/WX    TMP DP  RH WIND       PRES   REMARKS
DURANGO        FAIR      56  45  66 N3        30.35F
CORTEZ         FAIR      61  48  62 CALM      30.28S
PAGOSA SPRINGS CLOUDY    56  46  69 CALM      30.42F
TELLURIDE      FAIR      50  45  82 S5        30.51S
WOLF CREEK PAS FAIR      41  37  87 SW7       30.69S
$$

COZ009-010-012-014-032>034-037-058>063-311100-
...CENTRAL COLORADO...

CITY           SKY/WX    TMP DP  RH WIND       PRES   REMARKS
ASPEN          FAIR      47  40  76 CALM      30.40F
BUENA VISTA    FAIR      46  42  84 NW6       30.46F
COPPER MTN     FAIR      45  34  65 SW8       30.67F
BERTHOUD PASS  FAIR      37  27  65 SW5       30.69F
COTTONWOOD PAS FAIR      50  39  66 W5        30.55F
GUNNISON       FAIR      48  39  71 CALM      30.46S
KREMMLING      FAIR      41  36  81 CALM      30.43S
LEADVILLE      FAIR      37  35  92 CALM      30.55F
MONARCH PASS   FAIR      41  36  81 S9        30.77F
SALIDA         FAIR      53  46  79 NW6       30.51F
SUNLIGHT       FAIR      52  37  58 N5        30.62S
WILKERSON PASS FAIR      41  39  93 W3        30.66F
$$

COZ069>075-311100-
...SAN LUIS VALLEY/SANGRE DE CRISTO MOUNTAINS...

CITY           SKY/WX    TMP DP  RH WIND       PRES   REMARKS
ALAMOSA        FAIR      50  45  83 NW7       30.42R
LA VETA PASS   FAIR      46  37  71 MISG      30.56F
SAGUACHE       FAIR      45  43  93 CALM      30.45S
$$

COZ035-036-038>040-311100-
...NORTHERN COLORADO FRONT RANGE...

CITY           SKY/WX    TMP DP  RH WIND       PRES   REMARKS
DENVER INTL AP FAIR      56  51  84 W6        30.30S
DMNS CITY PARK   N/A     57  56  96 SW5       30.30S
AURORA         PTCLDY    53  53  97 S7        30.31F
FRONT RANGE AP NOT AVBL
ERIE MUNI ARPT FAIR      56  53  91 CALM      30.29S
BOULDER MUN AP FAIR      57  54  88 CALM      30.30S
CENTENNIAL     FAIR      54  50  86 S5        30.32F
BROOMFIELD     FAIR      59  50  72 NW8       30.32S
FORT COLLINS   MOCLDY    57  55  94 CALM      30.29F
LONGMONT       FAIR      57  54  89 W3        30.31S
$$

COZ041-046-047-076>085-087-088-311100-
...PIKES PEAK/PALMER DIVIDE AND SOUTHERN FOOTHILLS...

CITY           SKY/WX    TMP DP  RH WIND       PRES   REMARKS
COLO. SPRINGS  FAIR      55  50  83 N5        30.35F
A. F. ACADEMY  FAIR      51  50  99 N5        30.35F
SCHRIEVER AFB  NOT AVBL
ELLICOTT       NOT AVBL
FALCON         FAIR      52  50  93 NW5       30.38F
FORT CARSON    FAIR      53  49  86 NW5       30.31F
LIMON          FAIR      48  47  96 CALM      30.31S
MONUMENT HILL  FAIR      50  48  93 SW6       30.40S
TRINIDAD       FAIR      55  50  83 W6        30.32F
$$

COZ042>045-048>051-090-091-311100-
...NORTHEAST COLORADO...

CITY           SKY/WX    TMP DP  RH WIND       PRES   REMARKS
GREELEY ARPT   CLOUDY    57  55  94 NE3       30.29S
AKRON          FOG       56  55  97 CALM      30.27F VSB 1
BURLINGTON     FAIR      57  54  89 SW5       30.25F
WRAY           NOT AVBL
STERLING       FAIR      59  59 100 N3        30.24F FOG
HOLYOKE        LGT RAIN  63  61  94 E6        30.25S
FORT MORGAN    CLOUDY    57  56  96 NE6       30.28S FOG
$$

COZ086-089-092>099-311100-
...SOUTHEAST COLORADO...

CITY           SKY/WX    TMP DP  RH WIND       PRES   REMARKS
PUEBLO         FAIR      58  52  80 CALM      30.26F
LA JUNTA       FAIR      56  53  90 N7        30.23F
LAMAR          FAIR      57  56  96 SE5       30.21F
SPRINGFIELD      N/A     60  60 100 CALM      30.25F
$$




USA.gov is the U.S. government's official web portal to all federal, state and local government web resources and services.